    Orbital elements:
    2023 KZ1                                                 Earth MOID = 0.0025 AU
    Epoch 2023 Feb. 25.0 TT = JDT 2460000.5                 Bell                    
    M 283.50333              (2000.0)            P               Q                  
    n   0.65392918     Peri.  212.57928     +0.03816981     +0.93500850             
    a   1.3145655      Node    61.88085     -0.80966884     +0.23571760             
    e   0.2522428      Incl.   23.56240     -0.58564446     -0.26494589             
    P   1.51           H   26.21          G   0.15           U   6                  
    Residuals in seconds of arc
    230522 703  0.2+  0.3-    230522 L06  0.2-  0.1+    230522 L01  0.0   0.1+
    230522 703  0.2+  1.3-    230522 L06  0.3-  0.5-    230522 L01  0.3-  0.4+
    230522 703  0.0   0.4-    230522 L06  0.1-  0.2+    230522 L01  0.2-  0.1+
    230522 703  0.2+  0.1+    230522 K63  0.1+  0.2+    230522 L01  0.3-  0.4+
    230522 I52  0.0   0.0     230522 M44  1.3-  1.9-    230522 J95  0.1-  0.4+
    230522 I52  0.0   0.1-    230522 K63  0.8+  0.9+    230522 J95  0.0   0.5+
    230522 I52  0.0   0.0     230522 M44  1.5+  0.5+    230522 J95  0.1+  0.6+
    230522 I52  0.0   0.0     230522 M44  1.6-  0.8-    230522 J95  0.2-  0.2+
    230522 I52  0.1+  0.1+    230522 M44  2.0+  4.2+    230522 J95  0.0   0.3+
    230522 I52  0.1+  0.1-    230522 K63  0.1+  0.2-    230522 M50  0.2-  1.2-
    230522 I52  0.0   0.1+    230522 M44  1.3-  1.7-    230522 M50  0.1+  0.4-
    230522 I52  0.1+  0.1+    230522 M44  0.4+  1.5-    230522 L34  0.4+  0.6+
    230522 595  0.2+  0.6+    230522 K88  0.3+  0.6+    230522 L34  0.2+  0.2+
    230522 595  0.1-  0.5+    230522 K88  0.7-  0.3-    230523 204  0.0   0.5+
    230522 595  0.3-  0.5+    230522 J69  0.4+  0.2+    230523 204  0.2+  0.8+
    230522 595  0.2-  0.6+    230522 J69  0.3-  0.5-    230523 204  0.2+  0.5+
    230522 595  0.3+  0.0     230522 L99  0.6+  0.8+    230523 204  0.2+  0.3+
    230522 104  0.0   0.4-    230522 J69  0.2-  0.1-    230523 204  0.4+  0.5+
    230522 104  0.1+  0.2-    230522 L99  0.5+  1.0+    230523 J95  0.1+  0.0
    230522 104  0.2-  0.4-    230522 L99  0.2-  0.1-    230523 J95  0.1+  0.1+
    230522 K88  0.0   1.4+    230522 J69  0.0   0.9-    230523 J95  0.1+  0.0
    230522 K88  0.4-  0.1+    230522 Z80  0.3+  0.7-    230523 J95  0.1+  0.1-
    230522 104  0.2-  0.1-    230522 Z80  0.1+  0.7-    230523 L34  0.0   0.4+
    230522 K88  0.1-  0.6+    230522 Z80  0.5-  0.5-
    230522 L06  0.1+  0.5+    230522 L01  0.4-  0.4+
    
    Ephemeris:
    2023 KZ1                 a,e,i = 1.31, 0.25, 24                  q = 0.9830
    Date    TT    R. A. (2000) Decl.     Delta      r    Elong.  Phase     V
    2023 04 23    16 50 38.0 +48 25 12   0.2352  1.1030   108.6    59.7    25.4
    ...
    2023 05 08    16 56 24.3 +49 22 21   0.1223  1.0547   108.7    65.0    24.1
    ...
    2023 05 16    16 57 08.6 +48 33 08   0.06013 1.0327   109.7    67.1    22.5
    ...
    2023 05 22    16 53 13.7 +39 43 18   0.01322 1.0185   118.4    60.9    19.0
    2023 05 23    16 47 51.2 +23 47 22   0.0057301.0163   134.1    45.7    16.8
    2023 05 24    14 07 30.7 -84 29 08   0.0038461.0142   115.4    64.4    16.4
    ...
    2023 05 30    05 00 21.2 -53 38 13   0.04998 1.0023    75.7   101.6    23.4
    ...
    2023 06 07    04 58 49.1 -51 37 47   0.1120  0.9903    74.3    99.4    25.0
    ...
    2023 06 22    04 58 46.6 -49 46 07   0.2227  0.9804    74.5    92.9    26.2
    
    M. P. C. Staff               (C) Copyright 2023 MPC           M.P.E.C. 2023-K112
    


    Read MPEC 2023-K111 Read MPEC 2023-K113


    MPEC number:

    Enter an MPEC number in one of the following forms:

    • 1997-B01 (the full form)
    • J97B01 (the packed version of the full form)
    • B01 (the abbreviated form)